Location: Austin
(30.3000°N, 97.7500°W)
Time: 11:17:49
(UTC-05:00)

CRYOSAT 2 - Pass Details

Date: 03 April 2024
Orbit: 715 x 723 km, 92.0° (Epoch: 22 April)

Event Time Altitude Azimuth Distance (km) Brightness Sun altitude
Rises 06:08:05 0° 6° (N) 3,125 8.0 -15.4°
Reaches altitude 10° 06:10:23 10° 7° (N) 2,201 7.2 -14.9°
Maximum altitude 06:15:15 84° 95° (E) 724 4.4 -13.9°
Drops below altitude 10° 06:20:06 10° 184° (S) 2,187 6.7 -12.9°
Sets 06:22:22 0° 185° (S) 3,103 7.5 -12.4°
